星链-31925 (STARLINK-31925 )

导读

STARLINK-31925是美国SpaceX星链星座中的一颗卫星,于2024年5月23日发射入轨,属于星链项目的组网卫星,主要为全球范围内提供低延迟、高速率的宽带互联网服务,尤其服务偏远地区、海洋航空等传统网络覆盖不足区域,依托星链低轨星座架构实现全球互联通信。

基本信息
目录编号:
59840
目录名称:
STARLINK-31925
国际标识:
2024-097F
轨道中心:
EARTH
卫星名称:
星链-31925
卫星全名:
星链-31925 (STARLINK-31925 )
卫星状态:
已陨落 最后检测时间 2026-01-13
发射日期:
2024-05-23 UTC
国别 :
美国 (US)
星等 :
--
轨道信息
数据来源 国际轨道数据
星历时间: 2026-01-13T04:52:04+0800
轨道信息已过期156天
半长轴: 6610.946km
偏心率: 0.0018154
轨道倾角: 42.976°
近地点辐角 294.508°
升交点赤经 196.694°
平近点角 65.391°
近地点: 220.807km
远地点: 244.811km
周期: 89.157分钟
每日圈数: 16.151297
详细信息
固有亮度:
5
最大亮度:
1.5
卫星平台:
Starlink v2.0 mini
覆盖范围:
全球
运营商:
太空探索技术公司
运营商所在国:
美国
制造商(研发单位):
太空探索技术公司
制造商所在国:
美国
使用方式:
暂无
卫星简介
星链(Starlink)计划是由太空探索技术公司(SpaceX)提出的一个巨型低轨卫星互联网星座项目,计划在2019年至2024年间在太空搭建由约1.2万颗卫星组成的“星链”网络,其中1584颗将部署在地球上空550千米处的近地轨道,并从2020年开始工作。该卫星仍在工作。